Theta_e
285 285 285 285 284 284 284 284 284 284 283 283 283 283 283 283 283 283 283 283 283 283 283 283 283 284 284 284 284 285 285 285 285 286 286 286 286 286 287 287 287 287
284 284 284 284 283 283 283 283 283 282 282 282 281 281 281 281 281 282 282 282 282 282 282 282 282 282 283 283 283 283 284 284 284 285 285 285 285 286 286 286 286 287
282 282 282 282 282 281 281 281 281 281 280 280 280 280 280 280 280 280 280 281 281 281 281 281 281 281 281 282 282 282 282 282 283 283 284 284 285 285 286 286 286 286
281 281 281 280 280 280 280 280 280 280 280 280 279 279 279 279 279 279 279 279 280 280 279 279 279 280 280 280 281 281 281 281 281 282 282 283 284 284 284 285 285 285
280 280 280 280 280 279 279 280 280 279 279 279 279 279 279 279 279 279 279 279 279 279 279 279 278 278 278 279 279 279 280 280 280 280 281 281 282 282 282 283 283 284
280 280 279 279 279 279 279 279 279 278 278 278 278 278 278 278 278 278 278 278 278 278 278 278 278 278 278 278 278 278 278 278 279 279 279 280 280 280 280 281 281 282
279 279 279 279 278 278 278 278 277 277 277 277 277 277 277 277 277 277 277 277 277 277 277 277 277 277 277 277 277 277 277 277 277 278 278 278 278 279 279 279 279 279
278 278 278 277 277 277 277 277 276 276 276 276 276 276 276 276 276 276 275 276 276 276 276 276 276 276 276 276 276 276 276 276 276 276 276 277 277 277 277 277 278 278
277 277 276 276 276 276 276 276 276 275 275 275 275 275 275 275 275 275 274 274 274 274 274 274 274 274 274 274 275 275 275 275 275 275 275 275 275 276 276 276 276 277
276 276 276 276 275 275 275 275 275 274 274 274 274 274 274 274 274 273 273 273 273 273 273 273 273 273 273 273 273 273 274 274 274 274 274 274 274 274 275 275 275 276
275 275 275 275 275 274 274 274 274 274 273 273 273 273 273 273 273 272 272 272 272 272 272 272 272 272 273 273 273 273 273 273 273 273 274 274 274 274 274 274 274 275
275 274 274 274 274 274 273 273 273 273 273 272 272 272 272 272 272 272 271 271 271 271 271 271 271 271 271 272 272 272 272 272 272 272 272 273 273 273 273 273 273 273
274 274 274 273 273 273 273 273 272 272 272 272 272 271 271 271 271 271 271 271 271 271 271 271 271 271 271 270 271 271 271 271 271 271 271 272 272 272 272 272 272 272
273 273 273 273 272 272 272 272 272 271 271 271 271 271 271 271 270 270 270 270 270 270 270 270 270 270 270 270 270 270 269 270 270 270 270 270 271 271 271 271 271 271
272 272 272 272 272 272 272 272 272 271 271 271 271 271 271 271 270 270 270 270 270 270 270 269 270 270 269 269 269 269 269 269 269 269 269 269 269 270 270 270 271 271
272 272 272 272 272 272 272 272 272 272 272 271 271 271 271 271 270 270 270 270 269 269 269 269 269 269 269 269 269 269 269 270 269 269 269 269 269 269 269 269 270 270
273 273 273 273 272 272 272 272 272 272 272 271 271 271 271 270 270 270 270 270 269 269 269 269 269 269 269 269 268 269 270 270 270 270 269 269 269 268 268 268 269 269
273 273 273 273 272 272 272 272 272 272 272 271 271 271 270 270 270 270 270 270 269 269 269 269 269 269 269 268 268 269 270 270 270 270 270 269 269 269 268 268 268 268
273 273 273 273 272 272 272 272 272 272 271 271 271 271 270 270 270 270 270 269 269 269 269 269 269 269 269 268 268 269 270 270 270 270 269 269 269 269 268 268 267 267
273 273 273 272 272 272 272 272 271 271 271 271 270 270 270 270 270 269 269 269 269 269 269 269 268 268 268 268 268 268 269 270 269 269 269 269 268 268 268 267 267 267
273 272 272 272 272 271 271 271 271 270 270 270 270 270 269 269 269 269 269 269 269 269 269 268 268 268 268 268 268 268 269 269 269 268 268 268 267 267 267 267 267 266
272 272 271 271 271 271 270 270 270 270 270 269 269 269 269 269 268 268 268 268 268 268 268 268 268 268 268 267 267 267 268 268 268 268 267 267 267 267 266 266 266 266
271 271 271 270 270 270 270 269 269 269 269 268 268 267 267 267 266 266 266 266 266 266 267 267 267 267 267 267 267 267 267 267 267 267 267 267 267 266 266 266 266 266
270 270 270 270 269 269 268 268 268 267 267 266 266 265 265 265 265 265 265 265 265 265 266 266 266 266 266 266 266 266 266 266 266 266 266 266 266 266 266 266 265 265
270 270 269 269 268 268 267 266 266 266 265 265 264 264 263 263 263 263 264 264 264 264 265 265 265 265 265 265 265 265 265 266 266 266 266 266 266 265 265 265 265 265
269 269 268 267 267 266 265 265 265 264 264 263 263 263 262 262 262 263 263 263 263 264 264 264 264 264 264 264 264 264 264 265 265 265 265 265 265 265 264 264 265 265
Wind_Speed
14 13 12 11 11 10 9 8 8 8 8 8 8 8 9 9 9 9 10 10 10 10 10 10 11 11 11 11 11 11 11 10 10 10 10 10 10 10 10 10 10 10
14 13 12 11 11 10 9 8 8 7 8 8 8 8 7 8 8 9 9 10 10 10 11 11 11 11 11 10 10 11 10 11 10 10 11 10 10 10 10 10 11 10
14 13 12 11 11 10 9 8 7 7 7 7 7 7 7 8 8 9 9 10 10 11 11 11 11 11 11 11 10 10 10 10 10 10 10 9 9 9 10 10 11 11
13 12 11 11 10 9 8 7 7 7 6 7 7 7 8 8 9 9 10 10 10 11 11 11 12 11 11 11 10 10 9 9 10 10 10 9 9 9 9 9 10 10
12 11 9 9 8 7 6 6 6 7 7 7 7 8 8 9 9 10 10 11 11 11 11 11 11 11 11 11 11 11 11 10 10 10 10 9 10 10 10 10 10 9
10 9 8 7 7 6 6 6 7 7 7 7 8 8 9 9 10 11 11 11 12 12 12 12 12 12 12 12 11 11 11 11 11 11 11 10 10 10 11 11 11 10
8 7 7 7 6 6 6 6 7 7 7 8 8 9 9 10 10 11 11 11 12 12 12 12 12 12 12 12 12 11 11 11 12 12 11 11 11 11 11 11 12 12
7 7 6 6 5 5 6 6 7 8 8 8 9 9 9 10 10 10 11 11 11 11 11 11 11 11 11 11 11 11 11 11 12 12 12 12 13 13 13 13 12 12
6 6 6 5 5 5 6 7 7 8 8 8 9 9 9 10 10 10 11 11 11 11 11 11 11 11 11 11 11 11 12 12 11 11 11 12 12 13 14 14 14 14
5 5 5 4 5 5 6 7 7 7 8 8 9 9 10 10 11 11 11 12 12 12 12 12 12 12 11 11 11 11 11 12 12 12 11 11 12 12 13 14 14 14
4 4 4 4 4 5 6 6 7 7 8 9 9 10 10 11 12 12 12 13 13 13 13 13 13 13 13 12 11 11 11 11 12 12 12 12 12 12 12 13 13 14
3 3 3 3 4 5 6 6 7 7 8 9 10 10 11 11 11 12 12 13 14 14 14 14 13 13 14 13 12 12 12 12 12 13 14 14 13 13 13 13 13 14
2 3 3 4 5 5 6 7 7 8 9 9 10 11 11 11 12 12 12 13 14 14 14 15 15 14 14 14 14 14 13 13 13 14 15 15 15 15 14 14 14 14
2 3 4 5 6 6 7 8 8 9 10 10 11 11 12 13 13 14 14 14 14 14 14 15 15 15 15 15 15 15 15 14 15 15 16 16 16 16 16 15 15 15
3 4 5 5 6 7 7 8 9 10 11 11 12 12 13 14 15 16 16 16 16 15 15 15 16 16 16 15 16 17 16 16 16 17 18 18 18 18 18 17 16 16
4 5 6 6 7 8 8 9 10 12 13 13 14 15 16 16 17 17 18 17 17 17 16 16 16 16 17 17 17 17 17 17 18 18 19 19 19 20 20 19 18 17
5 5 7 7 8 9 10 11 12 13 15 16 17 17 18 18 19 19 19 19 19 18 17 17 17 17 18 18 18 17 16 17 18 19 19 20 20 21 21 21 21 19
5 7 8 9 10 10 12 12 14 15 17 18 19 19 20 20 21 21 21 21 20 20 20 19 19 19 18 19 19 17 17 18 19 19 20 20 21 21 21 21 22 21
7 9 10 11 11 12 13 14 15 17 18 19 20 21 21 22 23 23 23 23 23 23 23 22 22 21 21 20 20 19 18 18 20 20 20 20 21 21 22 22 23 24
9 10 11 12 12 13 13 14 15 17 19 20 21 22 23 24 25 26 26 26 26 26 26 26 25 24 23 22 22 21 20 20 21 21 21 21 21 22 23 24 25 25
9 10 10 11 11 12 13 14 16 18 19 20 21 22 24 25 26 27 28 28 28 28 29 30 28 27 26 25 23 22 21 22 23 23 23 23 23 23 24 25 26 26
7 7 8 10 11 13 14 16 18 19 21 22 23 25 26 27 28 29 29 30 30 29 30 31 30 28 27 27 25 23 23 24 25 26 26 26 25 25 25 26 26 26
6 8 9 11 13 15 17 19 20 22 23 24 26 28 28 29 29 30 29 29 30 29 29 31 31 30 29 29 27 24 24 25 27 28 28 28 27 27 26 27 27 27
8 10 12 14 16 18 20 21 23 24 25 26 26 27 28 28 27 28 28 27 27 27 27 29 31 31 29 29 28 26 24 26 27 29 29 29 28 28 28 28 28 28
11 13 14 16 18 19 21 22 24 25 25 26 25 25 27 27 26 26 27 26 25 25 25 26 29 30 29 29 29 28 26 26 27 28 28 28 28 29 30 29 29 27
13 15 16 17 19 20 21 21 22 23 24 24 24 24 24 25 24 23 24 25 23 23 24 25 27 29 29 28 28 27 25 25 26 27 27 28 28 28 29 29 28 27
Wind_Direction
93 90 89 87 84 81 76 72 64 58 54 47 41 36 29 21 15 9 8 7 3 1 358 354 351 345 341 337 333 331 326 321 319 315 312 311 310 308 306 303 298 293
90 88 88 85 83 80 75 71 66 61 56 52 46 40 33 24 17 11 9 7 5 4 2 359 356 352 347 342 337 336 333 329 324 320 318 314 308 304 303 302 297 292
90 88 87 85 83 82 78 74 69 65 59 52 44 36 28 21 16 12 7 5 3 2 1 359 357 355 351 347 341 339 338 337 336 333 330 323 314 307 303 301 298 294
88 86 84 83 82 79 76 71 64 58 50 42 36 28 21 15 11 8 5 3 1 359 358 356 353 351 349 347 345 342 339 338 336 334 333 329 325 320 312 309 306 300
86 84 82 79 76 70 62 56 51 45 37 31 25 18 13 9 6 5 3 1 359 357 355 352 349 347 345 344 344 344 341 338 336 333 331 327 324 326 324 320 318 313
85 81 77 69 62 56 47 44 41 34 28 23 17 11 7 5 3 2 1 360 358 356 352 350 347 344 342 341 339 340 340 339 338 337 336 331 324 323 323 322 322 322
83 75 69 61 54 48 43 41 37 29 25 20 12 7 3 1 360 358 358 357 354 352 349 346 344 341 340 338 334 333 334 333 333 333 333 333 330 325 324 325 324 322
80 73 66 60 54 48 41 37 32 24 20 14 7 5 1 358 356 354 354 353 351 349 346 342 341 340 339 338 334 331 329 330 330 330 329 328 329 328 328 328 327 324
81 75 69 59 49 43 36 30 24 18 13 6 2 0 357 354 353 351 350 349 347 344 341 339 339 340 339 338 336 332 330 328 327 327 327 326 326 326 326 326 325 325
86 77 69 54 44 37 29 24 17 11 4 359 356 353 350 350 348 347 345 342 341 338 337 337 336 336 337 335 333 330 327 325 323 322 320 319 320 321 322 322 322 323
90 80 65 46 39 29 21 16 8 2 357 350 348 346 344 344 342 342 340 336 335 334 333 334 333 332 331 330 328 324 320 317 315 313 311 310 310 310 312 314 314 315
92 78 55 35 27 17 11 5 356 353 347 341 340 338 338 338 335 335 333 330 329 329 329 329 328 326 325 325 323 318 313 309 305 305 305 305 305 306 306 307 307 309
85 55 31 16 8 1 357 352 346 342 337 334 333 332 332 332 329 327 325 324 323 323 324 323 322 322 321 320 319 317 313 307 302 300 300 300 302 303 304 304 305 307
46 22 8 360 355 352 349 345 342 339 336 334 333 332 333 332 329 326 322 320 320 318 317 317 316 317 318 316 315 315 313 309 305 303 303 302 301 300 299 300 301 304
21 13 3 359 354 351 350 346 343 341 338 338 338 335 335 333 329 327 324 320 316 313 312 311 311 312 315 313 312 312 313 312 310 307 306 305 303 300 298 297 299 301
15 6 359 358 353 349 347 344 340 338 335 335 336 333 333 331 326 325 326 323 318 314 311 310 310 312 313 311 311 311 310 308 304 301 301 302 303 301 299 299 299 299
6 356 351 350 347 343 341 337 333 331 329 329 329 328 327 324 320 320 321 322 320 316 313 312 312 313 313 312 312 307 302 301 299 298 298 297 298 299 299 299 299 299
351 344 343 342 342 339 335 331 327 324 324 323 322 322 320 317 314 314 314 315 316 313 312 312 312 313 313 313 312 307 300 299 298 297 296 294 293 294 294 294 295 297
345 339 336 334 334 331 325 322 319 317 318 318 316 316 315 312 311 310 308 310 310 309 309 308 308 310 312 312 311 307 301 298 297 296 293 291 290 289 289 290 292 294
334 327 323 323 322 319 316 315 314 313 313 313 313 312 311 309 309 308 307 307 307 307 307 306 305 306 308 309 308 305 301 298 295 294 292 289 287 285 285 287 289 292
316 312 313 315 314 313 313 312 311 310 309 309 309 307 307 306 306 305 305 305 305 305 304 302 302 303 304 305 303 300 299 298 295 292 290 288 286 285 284 286 288 291
304 306 308 309 309 309 308 308 307 306 305 305 305 303 301 301 300 300 301 301 301 302 300 299 299 301 301 302 301 297 296 296 294 291 289 287 287 287 288 288 290 292
297 301 303 303 304 305 305 304 304 302 302 303 303 302 300 299 299 298 298 298 298 298 298 297 297 298 299 301 300 296 293 293 292 290 289 287 287 288 289 289 291 293
293 298 301 301 302 303 303 302 302 301 302 302 303 302 300 300 300 299 298 298 298 297 296 295 294 296 298 299 298 296 293 291 290 288 286 285 286 288 289 289 289 292
292 296 298 299 300 301 301 301 301 301 301 300 300 300 300 300 301 300 298 298 297 295 294 293 293 295 295 295 296 295 293 289 287 286 284 283 285 287 288 289 289 290
291 294 295 298 299 300 299 299 299 299 300 300 301 301 301 301 300 299 297 297 296 295 294 293 293 294 296 297 297 297 294 290 286 283 281 282 283 284 286 288 290 291